User: anonymous   Login
Location: Hokitika
(42.7170°S, 170.9670°E)
Time: 23:38:03
(UTC+13:00)
Language:

Meteor 2-8 Rocket - Orbit

View from above orbital plane
View from above orbital plane
View from above satellite
View from above satellite

Ground track
Ground track

The orbit data is extracted from the following two-line orbital elements,

1 13114U 82025B   19080.96205935 +.00000005 +00000-0 -92901-5 0  9996
2 13114 082.5397 051.2901 0015340 140.7069 272.3995 13.84670461869082
Epoch (UTC): 21 March 2019 23:05:21
Eccentricity: 0.0015340
inclination: 82.5397°
perigee height: 936 km
apogee height: 958 km
right ascension of ascending node: 51.2901°
argument of perigee: 140.7069°
revolutions per day: 13.84670461
mean anomaly at epoch: 272.3995°
orbit number at epoch: 86908

The dashed part of the orbit path shows where the satellite is in the earth's shadow,  

DLR